TimeMST,TemperatureF,Dew PointF,Humidity,Sea Level PressureIn,VisibilityMPH,Wind Direction,Wind SpeedMPH,Gust SpeedMPH,PrecipitationIn,Events,Conditions,WindDirDegrees,DateUTC
12:52 AM,41.0,21.9,47,30.08,10.0,Calm,Calm,-,N/A,,Scattered Clouds,0,2012-11-22 07:52:00
1:52 AM,39.0,21.9,50,30.09,10.0,Calm,Calm,-,N/A,,Scattered Clouds,0,2012-11-22 08:52:00
2:52 AM,37.9,24.1,57,30.09,10.0,Calm,Calm,-,N/A,,Partly Cloudy,0,2012-11-22 09:52:00
3:52 AM,36.0,24.1,62,30.10,10.0,West,4.6,-,N/A,,Partly Cloudy,260,2012-11-22 10:52:00
4:52 AM,35.1,21.0,57,30.12,10.0,North,4.6,-,N/A,,Partly Cloudy,10,2012-11-22 11:52:00
5:52 AM,34.0,23.0,64,30.14,10.0,East,4.6,-,N/A,,Partly Cloudy,80,2012-11-22 12:52:00
6:52 AM,35.1,24.1,64,30.16,10.0,Calm,Calm,-,N/A,,Scattered Clouds,0,2012-11-22 13:52:00
7:52 AM,39.0,25.0,57,30.18,10.0,Calm,Calm,-,N/A,,Scattered Clouds,0,2012-11-22 14:52:00
8:52 AM,43.0,26.1,51,30.19,10.0,Calm,Calm,-,N/A,,Scattered Clouds,0,2012-11-22 15:52:00
9:52 AM,48.0,26.1,42,30.19,10.0,Calm,Calm,-,N/A,,Mostly Cloudy,0,2012-11-22 16:52:00
10:52 AM,50.0,25.0,38,30.20,10.0,Calm,Calm,-,N/A,,Mostly Cloudy,0,2012-11-22 17:52:00
11:52 AM,54.0,23.0,30,30.16,10.0,SSW,4.6,-,N/A,,Mostly Cloudy,200,2012-11-22 18:52:00
12:52 PM,57.0,24.1,28,30.13,10.0,Calm,Calm,-,N/A,,Mostly Cloudy,0,2012-11-22 19:52:00
1:52 PM,60.1,23.0,24,30.11,10.0,Calm,Calm,-,N/A,,Mostly Cloudy,0,2012-11-22 20:52:00
2:52 PM,61.0,23.0,23,30.11,10.0,Calm,Calm,-,N/A,,Mostly Cloudy,0,2012-11-22 21:52:00
3:52 PM,61.0,23.0,23,30.12,10.0,SSE,5.8,-,N/A,,Mostly Cloudy,160,2012-11-22 22:52:00
4:52 PM,57.0,23.0,27,30.16,10.0,SE,5.8,-,N/A,,Mostly Cloudy,140,2012-11-22 23:52:00
5:52 PM,53.1,21.9,30,30.19,10.0,East,5.8,-,N/A,,Mostly Cloudy,100,2012-11-23 00:52:00
6:52 PM,52.0,23.0,32,30.22,10.0,Calm,Calm,-,N/A,,Scattered Clouds,0,2012-11-23 01:52:00
7:52 PM,53.1,23.0,31,30.22,10.0,NNE,5.8,-,N/A,,Scattered Clouds,30,2012-11-23 02:52:00
8:52 PM,53.1,21.9,30,30.23,10.0,Calm,Calm,-,N/A,,Scattered Clouds,0,2012-11-23 03:52:00
9:52 PM,48.0,19.0,32,30.24,10.0,North,5.8,-,N/A,,Clear,360,2012-11-23 04:52:00
10:52 PM,46.9,19.0,33,30.26,10.0,NE,3.5,-,N/A,,Clear,50,2012-11-23 05:52:00
11:52 PM,46.0,17.1,31,30.29,10.0,East,12.7,-,N/A,,Clear,80,2012-11-23 06:52:00